"TOA5","AWS1","CR1000","7964","CR1000.Std.14","CPU:AWS1_114.CR1","64363","TBL110"
"TIMESTAMP","RECORD","Wind_spd_WVc(1)","Wind_spd_WVc(2)","Air_Temp_Avg","Humidity_Avg","SW_upper_Wm2_Avg","Rain_Tot","Press_Avg","Issui_Tot","Depth_cm","SR50A_Raw","Quality","Ground_Temp_Avg(1)","Ground_Temp_Avg(2)","SW_lower_Wm2_Avg","Albedo_Avg","SWC_per(1)","SWC_per(2)","Period(1)","Period(2)"
"TS","RN","","","","","","","","","","","","","","","","","","",""
"","","WVc","WVc","Avg","Avg","Avg","Tot","Avg","Tot","Smp","Smp","Smp","Avg","Avg","Avg","Avg","Smp","Smp","Smp","Smp"
"2017-01-16 00:00:00",270925,0.125,358.4,-9.58,91.8,0,0,855.3524,0.5,106.2,2.157,202,2.278,2.966,0,0,51.27,58.56,33.61,35.35
"2017-01-16 00:10:00",270926,0.196,69.76,-9.61,91.9,0.0275402,0,855.1162,0.5,104.4,2.174,238,2.277,2.972,0.0569014,0.016,51.27,58.56,33.61,35.35
"2017-01-16 00:20:00",270927,0.051,149.3,-9.55,91.1,0,0,855.1078,0,106.3,2.155,238,2.27,2.958,0,0,51.33,58.56,33.62,35.35
"2017-01-16 00:30:00",270928,0.184,22.79,-9.72,92.3,0,0,855.1942,0.5,106.4,2.154,260,2.275,2.962,0,0,51.27,58.61,33.61,35.36
"2017-01-16 00:40:00",270929,0,22.03,-9.6,91.6,0,0,855.1078,0.5,107,2.148,200,2.277,2.972,0,0,51.33,58.61,33.62,35.36
"2017-01-16 00:50:00",270930,0.105,89.6,-9.66,91.3,0.003934314,0,855.0382,0,107.6,2.142,198,2.278,2.971,0,0,51.33,58.61,33.62,35.36
"2017-01-16 01:00:00",270931,0.03,135,-9.64,91.5,0.01967157,0,855.034,0.5,108.2,2.136,201,2.274,2.969,0,0,51.33,58.61,33.62,35.36
"2017-01-16 01:10:00",270932,0.078,130.4,-9.63,91.5,0.003934314,0,855.2175,0.5,109.3,2.125,195,2.278,2.968,0.01517371,0,51.27,58.61,33.61,35.36
"2017-01-16 01:20:00",270933,0,0,-9.57,91.2,0,0,855.3882,0,108.7,2.131,205,2.277,2.971,0.2276056,0,51.27,58.56,33.61,35.35
"2017-01-16 01:30:00",270934,0,0,-9.57,91.2,0,0,855.5106,0.5,108.6,2.132,220,2.28,2.972,0.1669108,0,51.27,58.61,33.61,35.36
"2017-01-16 01:40:00",270935,0,0,-9.7,92.4,0,0,855.538,0.5,108.6,2.132,198,2.28,2.972,0,0,51.27,58.61,33.61,35.36
"2017-01-16 01:50:00",270936,0,0,-9.75,94.1,0.05114608,0,855.538,0,107.5,2.144,211,2.277,2.972,0,0,51.27,58.61,33.61,35.36
"2017-01-16 02:00:00",270937,0.019,121.3,-9.73,93.7,0.09835783,0,855.7424,0.5,108.9,2.129,202,2.271,2.972,0,0,51.27,58.61,33.61,35.36
"2017-01-16 02:10:00",270938,0.217,69.2,-9.59,93.4,0,0,855.7382,0.5,109,2.128,281,2.28,2.972,0.1024225,0,51.33,58.61,33.62,35.36
"2017-01-16 02:20:00",270939,0.133,228.7,-9.46,93.5,0,0,855.7424,0,109.6,2.121,304,2.276,2.972,0.2238122,0,51.33,58.61,33.62,35.36
"2017-01-16 02:30:00",270940,0.098,206.5,-9.42,92.8,0,0,855.791,0.5,109.4,2.123,196,2.28,2.972,0.1896713,0,51.27,58.61,33.61,35.36
"2017-01-16 02:40:00",270941,0.123,146.1,-9.51,92,0.003934314,0,855.791,0.5,109.4,2.124,193,2.28,2.972,0,0,51.27,58.61,33.61,35.36
"2017-01-16 02:50:00",270942,0.373,9.4,-9.59,93.2,0,0,855.7698,0,109.2,2.126,201,2.273,2.971,0.03414084,0,51.33,58.61,33.62,35.36
"2017-01-16 03:00:00",270943,0.543,278,-9.49,93.5,0,0,855.6138,0.5,108.9,2.128,194,2.278,2.972,0.2010516,0,51.33,58.61,33.62,35.36
"2017-01-16 03:10:00",270944,0.306,319.6,-9.36,93.4,0,0,855.538,0.5,109.2,2.124,198,2.278,2.972,0.2238122,0,51.33,58.61,33.62,35.36
"2017-01-16 03:20:00",270945,0.206,226.7,-9.29,92.4,0,0,855.5421,0,108.4,2.132,217,2.276,2.969,0.2276056,0,51.27,58.61,33.61,35.36
"2017-01-16 03:30:00",270946,0.305,128,-9.33,92.8,0,0,855.538,0,108.9,2.127,206,2.258,2.963,0.2276056,0,51.33,58.61,33.62,35.36
"2017-01-16 03:40:00",270947,0.019,214.9,-9.2,92.5,0,0,855.538,0.5,109.6,2.12,200,2.257,2.97,0.1593239,0,51.33,58.61,33.62,35.36
"2017-01-16 03:50:00",270948,0.074,115.9,-9.21,92,0,0,855.4388,0.5,110.2,2.114,190,2.27,2.964,0.02276056,0,51.33,58.61,33.62,35.36
"2017-01-16 04:00:00",270949,0.189,100.1,-9.31,92.8,0,0,855.287,0,110.1,2.115,216,2.248,2.956,0.02276056,0,51.27,58.61,33.61,35.36
"2017-01-16 04:10:00",270950,0.377,73.12,-9.4,93.4,0,0,855.3018,0.5,109.5,2.122,204,2.233,2.961,0.01138028,0,51.27,58.61,33.61,35.36
"2017-01-16 04:20:00",270951,0.425,78.62,-9.42,93.4,0,0,855.3756,0.5,112,2.097,202,2.214,2.943,0.06828168,0,51.33,58.61,33.62,35.36
"2017-01-16 04:30:00",270952,0.223,174.5,-9.34,93.2,0,0,855.5295,0,112.8,2.088,193,2.248,2.962,0.1138028,0,51.33,58.61,33.62,35.36
"2017-01-16 04:40:00",270953,0.117,223.9,-9.2,92.7,0,0,855.5253,0.5,112.9,2.086,209,2.25,2.969,0.1631174,0,51.33,58.61,33.62,35.36
"2017-01-16 04:50:00",270954,0.104,218.2,-9.17,92.2,0,0,855.538,0,113.3,2.082,192,2.248,2.971,0.003793427,0,51.33,58.61,33.62,35.36
"2017-01-16 05:00:00",270955,0.052,165.1,-9.21,92.3,0,0,855.538,0.5,113.9,2.077,193,2.256,2.971,0,0,51.27,58.61,33.61,35.36
"2017-01-16 05:10:00",270956,0.212,201.2,-9.29,92.6,0,0,855.7571,0,111.1,2.105,276,2.222,2.958,0,0,51.27,58.61,33.61,35.36
"2017-01-16 05:20:00",270957,0.429,12.32,-9.28,92.7,0,0,855.8352,0.5,116,2.055,192,2.246,2.969,0.1744976,0,51.27,58.61,33.61,35.36
"2017-01-16 05:30:00",270958,0.72,356,-9.37,92.7,0,0,855.9069,0,115.8,2.058,200,2.254,2.972,0.07207511,0,51.27,58.61,33.61,35.36
"2017-01-16 05:40:00",270959,0.741,352.4,-9.57,92.8,0.2085186,0,856.0038,0.5,115.8,2.058,196,2.248,2.971,0,0,51.33,58.61,33.62,35.36
"2017-01-16 05:50:00",270960,0.515,30.57,-9.67,92.6,0.2360588,0,855.9638,0,115.5,2.062,240,2.234,2.963,0,0,51.33,58.61,33.62,35.36
"2017-01-16 06:00:00",270961,0.57,302.8,-9.65,92.3,0.2360588,0,855.949,0.5,116.4,2.053,191,2.21,2.943,0,0,51.33,58.61,33.62,35.36
"2017-01-16 06:10:00",270962,0.238,31.92,-9.65,92.8,0.2321245,0,855.987,0,116.4,2.052,182,2.201,2.949,0,0,51.33,58.61,33.62,35.36
"2017-01-16 06:20:00",270963,0.226,166.6,-9.56,92.4,0.20065,0,855.9153,0.5,116.5,2.051,200,2.196,2.931,0,0,51.33,58.61,33.62,35.36
"2017-01-16 06:30:00",270964,0.289,167.9,-9.59,92.2,0.1534382,0,855.9575,0,114.3,2.074,228,2.195,2.915,0,0,51.33,58.61,33.62,35.36
"2017-01-16 06:40:00",270965,0.399,103,-9.59,92.2,0.03540882,0,856.0966,0.5,116.6,2.051,211,2.194,2.921,0.08724882,0.016,51.27,58.61,33.61,35.36
"2017-01-16 06:50:00",270966,0.362,76.63,-9.73,92.7,0.2163872,0,856.2695,0,115.9,2.058,216,2.196,2.902,0.2162253,0.852,51.33,58.61,33.62,35.36
"2017-01-16 07:00:00",270967,0.547,58.1,-9.87,92.3,0.2360588,0,856.1008,0,115.5,2.063,220,2.197,2.923,0.6562628,2.78,51.33,58.61,33.62,35.36
"2017-01-16 07:10:00",270968,0.359,352.8,-9.85,92.5,0.6727676,0,856.0397,0.5,116.5,2.052,386,2.197,2.925,2.602291,3.862,51.33,58.61,33.62,35.36
"2017-01-16 07:20:00",270969,0.223,180.1,-9.79,91.9,0.7357166,0,856.0439,0,115.8,2.059,199,2.197,2.911,2.974047,4.334,51.33,58.61,33.62,35.36
"2017-01-16 07:30:00",270970,0.336,310.3,-9.85,92,0.2714676,0,856.2443,0.5,116.9,2.048,185,2.211,2.893,1.536338,6.002,51.27,58.61,33.61,35.36
"2017-01-16 07:40:00",270971,0.284,22.52,-9.81,92.1,1.046527,0,856.3918,0,117.8,2.039,199,2.203,2.896,4.085521,3.868,51.33,58.61,33.62,35.36
"2017-01-16 07:50:00",270972,0.232,292.8,-9.76,91.9,3.690386,0,856.5499,0,118,2.036,192,2.2,2.911,14.9461,4.007,51.33,58.61,33.62,35.36
"2017-01-16 08:00:00",270973,0.315,319.2,-9.66,91.5,5.704755,0,856.6321,0.5,117.3,2.044,203,2.196,2.907,24.71797,4.308,51.33,58.67,33.62,35.37
"2017-01-16 08:10:00",270974,0.372,336.1,-9.75,92.6,5.87393,0,856.8093,0,117.8,2.038,265,2.194,2.912,25.28698,4.272,51.33,58.61,33.62,35.36
"2017-01-16 08:20:00",270975,0.605,7.862,-9.78,91.9,5.405746,0,856.9758,0,117.8,2.039,190,2.196,2.909,23.35992,4.318,51.33,58.61,33.62,35.36
"2017-01-16 08:30:00",270976,0.381,338.8,-9.81,91.9,9.619396,0,857.018,0,117.5,2.042,206,2.196,2.938,41.80357,4.345,51.33,58.67,33.62,35.37
"2017-01-16 08:40:00",270977,0.266,341.7,-9.64,92,9.013513,0,857.0497,0.5,116.9,2.047,207,2.2,2.958,39.50854,4.404,51.33,58.61,33.62,35.36
"2017-01-16 08:50:00",270978,0.544,25.23,-9.55,92.1,9.462024,0,857.056,0,117.9,2.037,197,2.207,2.965,41.3787,4.396,51.33,58.61,33.62,35.36
"2017-01-16 09:00:00",270979,0.205,321.7,-9.39,92,10.51642,0,857.1572,0,118.2,2.033,177,2.197,2.958,46.13945,4.408,51.33,58.61,33.62,35.36
"2017-01-16 09:10:00",270980,0.417,353.7,-9.41,91.4,16.53199,0,857.3321,0,117.6,2.04,201,2.204,2.927,72.39755,4.371,51.33,58.67,33.62,35.37
"2017-01-16 09:20:00",270981,0.45,357.6,-9.32,91.5,19.47879,0,857.3174,0,118,2.035,204,2.261,2.934,85.40142,4.395,51.33,58.61,33.62,35.36
"2017-01-16 09:30:00",270982,0.413,339,-9.33,92.5,11.38984,0,857.4502,0.5,117.6,2.039,198,2.268,2.935,50.08082,4.399,51.33,58.61,33.62,35.36
"2017-01-16 09:40:00",270983,0.358,352.7,-9.29,91.2,12.27506,0,857.5557,0,118,2.035,202,2.271,2.937,53.5556,4.36,51.33,58.67,33.62,35.37
"2017-01-16 09:50:00",270984,0.246,358.2,-9.28,91.4,11.50393,0,857.562,0,117.9,2.035,194,2.271,2.933,50.05048,4.354,51.33,58.67,33.62,35.37
"2017-01-16 10:00:00",270985,0.212,323.8,-9.17,92.3,11.01608,0,857.5789,0,117.4,2.04,195,2.273,2.952,48.47241,4.405,51.33,58.67,33.62,35.37
"2017-01-16 10:10:00",270986,0.141,120.7,-9.08,92.5,14.08086,0,857.5641,0,117,2.044,224,2.263,2.962,61.40398,4.365,51.33,58.67,33.62,35.37
"2017-01-16 10:20:00",270987,0.386,16.07,-9.23,91.9,6.582023,0,857.5567,0.5,118,2.035,172,2.243,2.985,27.79788,4.238,51.33,58.67,33.62,35.37
"2017-01-16 10:30:00",270988,0.347,254.2,-9.26,92.9,11.10256,0,857.5628,0,117,2.044,201,2.267,2.965,49.97049,4.403,51.38,58.61,33.64,35.36
"2017-01-16 10:40:00",270989,0.218,79.43,-8.97,92.7,14.36414,0,857.5594,0,118.9,2.024,221,2.261,2.979,71.67282,4.998,51.33,58.67,33.62,35.37
"2017-01-16 10:50:00",270990,0.467,41.99,-9.02,92.1,12.64488,0,857.5583,0,119,2.024,195,2.24,3.007,66.12698,5.235,51.33,58.61,33.62,35.36
"2017-01-16 11:00:00",270991,0.346,278.4,-9.06,92.5,16.71275,0,857.5759,0.5,119.9,2.014,186,2.24,3.012,87.35393,5.225,51.38,58.67,33.64,35.37
"2017-01-16 11:10:00",270992,0.262,5.312,-8.69,92.5,26.03671,0,857.5203,0,119.6,2.016,194,2.24,3.001,140.6002,5.399,51.33,58.67,33.62,35.37
"2017-01-16 11:20:00",270993,0.222,329.9,-8.44,91.7,25.36709,0,857.4338,0,118.9,2.022,242,2.276,2.965,140.721,5.552,51.33,58.67,33.62,35.37
"2017-01-16 11:30:00",270994,0.23,357.6,-8.26,91.5,18.84724,0,857.3814,0,119.4,2.017,196,2.268,2.942,109.2008,5.804,51.38,58.67,33.64,35.37
"2017-01-16 11:40:00",270995,0.313,48.98,-8.13,92.6,28.30266,0,857.176,0,118.3,2.027,192,2.211,2.93,158.7587,5.61,51.33,58.67,33.62,35.37
"2017-01-16 11:50:00",270996,0.235,43.66,-8.06,92.1,14.58898,0,857.0497,0,118.4,2.026,205,2.213,2.909,85.27531,5.968,51.38,58.67,33.64,35.37
"2017-01-16 12:00:00",270997,0.429,60.67,-8.24,93.5,12.22808,0,857.1289,0,119.7,2.014,369,2.193,2.894,68.33311,5.598,51.38,58.67,33.64,35.37
"2017-01-16 12:10:00",270998,0.441,356.5,-8.42,94.2,13.89931,0,857.0966,0,118.5,2.027,207,2.184,2.887,74.53916,5.367,51.38,58.67,33.64,35.37
"2017-01-16 12:20:00",270999,0.362,26.99,-8.36,94.7,14.10762,0,856.9698,0.5,118.5,2.026,205,2.178,2.885,76.68859,5.447,51.38,58.67,33.64,35.37
"2017-01-16 12:30:00",271000,0.181,50.39,-8.11,94.5,17.92257,0,856.7444,0,119,2.019,203,2.189,2.884,97.25314,5.438,51.33,58.67,33.62,35.37
"2017-01-16 12:40:00",271001,0.394,67.92,-8.03,93.4,19.79465,0,856.7107,0,119.2,2.018,219,2.192,2.882,109.1528,5.533,51.33,58.67,33.62,35.37
"2017-01-16 12:50:00",271002,0.188,188.5,-8,93.7,19.598,0,856.6201,0,118.8,2.02,194,2.192,2.865,108.9935,5.572,51.33,58.67,33.62,35.37
"2017-01-16 13:00:00",271003,0.334,78.12,-7.757,91.4,16.80559,0,856.5736,0,318,0,0,2.19,2.851,95.49352,5.738,51.33,58.67,33.62,35.37
"2017-01-16 13:10:00",271004,0.419,36.62,-7.903,92.4,16.56568,0,856.7317,0,119.2,2.017,200,2.187,2.85,93.77947,5.682,51.38,58.67,33.64,35.37
"2017-01-16 13:20:00",271005,0.236,97.8,-7.722,92.3,14.82731,0,856.7148,0,119.1,2.018,196,2.163,2.845,84.45082,5.727,51.33,58.67,33.62,35.37
"2017-01-16 13:30:00",271006,0.026,127.8,-7.606,91.1,9.588588,0,856.7148,0.5,119.3,2.016,200,2.165,2.846,56.54451,5.899,51.33,58.67,33.62,35.37
"2017-01-16 13:40:00",271007,0.202,79.83,-7.599,92,23.53491,0,856.7148,0,119.7,2.01,202,2.168,2.851,131.4354,5.625,51.33,58.67,33.62,35.37
"2017-01-16 13:50:00",271008,0.131,130.6,-7.075,90.2,18.79961,0,856.738,2,117.4,2.033,237,2.15,2.874,109.2362,5.892,51.33,58.67,33.62,35.37
"2017-01-16 14:00:00",271009,0.119,119,-7.389,89.9,9.69871,0,856.8012,0,120.2,2.005,200,2.149,2.864,59.26726,6.108,51.38,58.67,33.64,35.37
"2017-01-16 14:10:00",271010,0.126,86.2,-7.281,91,11.96804,0,856.8582,0.5,117.3,2.034,219,2.149,2.888,70.16965,5.866,51.33,58.67,33.62,35.37
"2017-01-16 14:20:00",271011,0.072,82.3,-7.217,92.9,89.21162,0,856.9509,0,120.7,1.999,193,2.151,2.88,87.33664,2.322,51.33,58.67,33.62,35.37
"2017-01-16 14:30:00",271012,0.172,126.5,-7.061,93.3,106.6937,0,856.9678,0,120.7,1.998,192,2.149,2.893,91.78102,0.86,51.33,58.67,33.62,35.37
"2017-01-16 14:40:00",271013,0,0,-6.83,92.2,75.98897,0,857.1111,0.5,120.4,2.001,177,2.149,2.908,69.60083,0.921,51.33,58.67,33.62,35.37
"2017-01-16 14:50:00",271014,0,0,-6.874,92.2,76.48058,0,857.2228,0,118.8,2.018,199,2.149,2.911,72.67625,0.952,51.33,58.67,33.62,35.37
"2017-01-16 15:00:00",271015,0,0,-7.001,91.5,49.7521,0,857.402,0,121.2,1.994,278,2.149,2.873,49.57836,0.998,51.33,58.67,33.62,35.37
"2017-01-16 15:10:00",271016,0,0,-7.073,92.4,26.36271,0,857.3746,0.5,120.6,2,196,2.154,2.898,27.60674,1.055,51.33,58.67,33.62,35.37
"2017-01-16 15:20:00",271017,0,0,-7.004,92.7,12.54618,0,857.4651,0,121.1,1.996,177,2.163,2.863,14.44424,1.158,51.33,58.67,33.62,35.37
"2017-01-16 15:30:00",271018,0,0,-7.159,93,12.05063,0,857.4715,0,121.5,1.991,183,2.185,2.843,16.54508,1.347,51.33,58.67,33.62,35.37
"2017-01-16 15:40:00",271019,0,0,-7.185,93.4,15.45265,0,857.6,0.5,121.9,1.988,192,2.192,2.858,25.39592,1.644,51.33,58.67,33.62,35.37
"2017-01-16 15:50:00",271020,0,0,-7.371,93.8,11.03592,0,857.7666,0,122.5,1.982,176,2.192,2.876,19.05927,1.732,51.33,58.67,33.62,35.37
"2017-01-16 16:00:00",271021,0,0,-7.208,94.1,8.86492,0,857.9774,0,122.1,1.985,240,2.193,2.884,16.45407,1.86,51.33,58.67,33.62,35.37
"2017-01-16 16:10:00",271022,0,0,-7.207,93.4,11.11065,0,857.9795,0.5,123.1,1.976,197,2.188,2.884,22.32808,2.003,51.38,58.67,33.64,35.37
"2017-01-16 16:20:00",271023,0,0,-7.176,93.8,9.69871,0,857.9731,0,122.8,1.978,201,2.182,2.884,19.79115,2.04,51.38,58.67,33.64,35.37
"2017-01-16 16:30:00",271024,0,0,-7.109,93.4,5.812933,0,857.9795,0,123.3,1.973,191,2.178,2.884,11.61531,1.971,51.38,58.67,33.64,35.37
"2017-01-16 16:40:00",271025,0,0,-7.242,93.9,1.994017,0,858.0533,0.5,123.1,1.975,170,2.195,2.884,3.644241,1.836,51.33,58.67,33.62,35.37
"2017-01-16 16:50:00",271026,0,0,-7.134,94.1,0.7354659,0,858.2471,0,123.2,1.974,190,2.212,2.884,1.490309,2.073,51.33,58.67,33.62,35.37
"2017-01-16 17:00:00",271027,0,0,-7.108,94.2,0.2477773,0,858.2703,0.5,123.9,1.967,192,2.219,2.889,0.4360954,1.768,51.33,58.67,33.62,35.37
"2017-01-16 17:10:00",271028,0,0,-7.108,94.4,0.14552,0,858.4621,0,123.8,1.967,192,2.206,2.887,0.1099719,0.45,51.38,58.67,33.64,35.37
"2017-01-16 17:20:00",271029,0,0,-7.072,94.1,0,0,858.5106,0.5,124.2,1.964,176,2.194,2.898,0,0,51.33,58.67,33.62,35.37
"2017-01-16 17:30:00",271030,0,0,-7.186,94.7,0,0,858.713,0,124.7,1.959,189,2.166,2.883,0,0,51.38,58.67,33.64,35.37
"2017-01-16 17:40:00",271031,0,0,-7.233,95.3,0,0,858.9891,0.5,125.4,1.952,203,2.15,2.894,0.007584268,0,51.38,58.67,33.64,35.37
"2017-01-16 17:50:00",271032,0,0,-7.235,95.6,0.01966486,0,859.1956,0,126.3,1.943,192,2.15,2.9,0.02654494,0,51.33,58.73,33.62,35.39
"2017-01-16 18:00:00",271033,0,0,-7.329,94.2,0.07079351,0,859.4802,0.5,126,1.947,192,2.153,2.893,0,0,51.38,58.73,33.64,35.39
"2017-01-16 18:10:00",271034,0,0,-7.302,94.5,0.03146378,0,859.4906,0,125.9,1.947,197,2.15,2.92,0,0,51.38,58.67,33.64,35.37
"2017-01-16 18:20:00",271035,0,0,-7.322,94.3,0,0,859.6551,0,126.4,1.942,176,2.162,2.925,0,0,51.33,58.67,33.62,35.37
"2017-01-16 18:30:00",271036,0.007,281.9,-7.269,94.9,0,0,859.9607,0,126.1,1.945,188,2.164,2.926,0.04929774,0,51.38,58.73,33.64,35.39
"2017-01-16 18:40:00",271037,0.888,290.8,-7.02,96.1,0,0,860.0872,0.5,125,1.955,220,2.142,2.92,0.6143257,0,51.33,58.73,33.62,35.39
"2017-01-16 18:50:00",271038,0.163,74.78,-6.887,96.1,0,0,860.4054,0,126.7,1.938,200,2.134,2.922,0.2692415,0,51.38,58.67,33.64,35.37
"2017-01-16 19:00:00",271039,0.513,269,-6.885,95.9,0,0,860.4117,0,126.5,1.939,217,2.172,2.909,0.2351123,0,51.38,58.73,33.64,35.39
"2017-01-16 19:10:00",271040,0.106,229.3,-6.739,95.1,0,0,860.2242,0.5,126.2,1.942,199,2.158,2.894,0.1289331,0,51.38,58.73,33.64,35.39
"2017-01-16 19:20:00",271041,0.189,14.19,-6.923,95.4,0,0,860.4117,0,125.9,1.946,194,2.162,2.875,0,0,51.38,58.73,33.64,35.39
"2017-01-16 19:30:00",271042,0.391,26.16,-6.957,96.5,0,0,860.6498,0,125.1,1.954,200,2.129,2.897,0.01137659,0,51.38,58.73,33.64,35.39
"2017-01-16 19:40:00",271043,0.504,324,-6.864,97.9,0,0,860.9049,0,126.4,1.94,198,2.118,2.911,0.2313229,0,51.38,58.73,33.64,35.39
"2017-01-16 19:50:00",271044,0.913,313.1,-6.71,97.1,0,0,861.0672,0.5,126.8,1.936,292,2.121,2.911,0.3564682,0,51.38,58.73,33.64,35.39
"2017-01-16 20:00:00",271045,0.667,277.1,-6.701,97.5,0,0,861.1326,0.5,126.3,1.941,170,2.124,2.92,0.2199582,0,51.38,58.73,33.64,35.39
"2017-01-16 20:10:00",271046,0.447,326.6,-6.616,96.7,0,0,861.2484,0,126.1,1.943,175,2.141,2.908,0.2275521,0,51.33,58.73,33.62,35.39
"2017-01-16 20:20:00",271047,0.849,302.3,-6.623,96,0,0,861.3349,0,126.1,1.943,170,2.148,2.896,0.1592863,0,51.38,58.73,33.64,35.39
"2017-01-16 20:30:00",271048,0.748,287.8,-6.664,95.6,0,0,861.4782,0,125.7,1.947,169,2.139,2.887,0.1592855,0,51.38,58.73,33.64,35.39
"2017-01-16 20:40:00",271049,0.633,277.3,-6.665,96.6,0,0,861.5182,0,125.4,1.95,192,2.149,2.906,0.08722892,0,51.38,58.73,33.64,35.39
"2017-01-16 20:50:00",271050,0.48,284.8,-6.63,96.1,0,0,861.5039,0,125.2,1.952,171,2.143,2.888,0.05688857,0,51.38,58.73,33.64,35.39
"2017-01-16 21:00:00",271051,0.799,16.8,-6.716,97,0,0,861.6151,0.5,125.2,1.952,191,2.151,2.89,0,0,51.38,58.73,33.64,35.39
"2017-01-16 21:10:00",271052,1.074,12.41,-6.729,98.1,0,0,861.7433,0,125,1.954,179,2.157,2.888,0.06447775,0,51.33,58.73,33.62,35.39
"2017-01-16 21:20:00",271053,0.759,289.9,-6.714,95.2,0,0,861.9532,0,124.7,1.957,170,2.159,2.904,0.1137866,0,51.38,58.73,33.64,35.39
"2017-01-16 21:30:00",271054,0.552,80.2,-6.811,94.5,0,0,862.0267,0,124.5,1.96,170,2.152,2.892,0,0,51.38,58.73,33.64,35.39
"2017-01-16 21:40:00",271055,0.721,223.5,-6.854,93.6,0,0,861.9213,0,124.4,1.961,171,2.148,2.886,0,0,51.38,58.73,33.64,35.39
"2017-01-16 21:50:00",271056,0.403,283.9,-6.815,92.7,0,0,862.0437,0,123.9,1.965,170,2.153,2.889,0.04551349,0,51.38,58.73,33.64,35.39
"2017-01-16 22:00:00",271057,0.623,324,-6.835,93.3,0,0,862.0436,0,123.8,1.967,187,2.16,2.897,0.06827325,0,51.38,58.73,33.64,35.39
"2017-01-16 22:10:00",271058,0.524,298.9,-6.797,93.2,0,0,862.0858,0.5,123.5,1.97,182,2.162,2.899,0.2199922,0,51.38,58.73,33.64,35.39
"2017-01-16 22:20:00",271059,0.776,293.9,-6.806,93.7,0,0,862.2531,0,123.1,1.974,188,2.168,2.905,0.2162051,0,51.38,58.73,33.64,35.39
"2017-01-16 22:30:00",271060,0.581,230.5,-6.818,94.2,0,0,862.0704,0,122.9,1.976,192,2.165,2.903,0.02655134,0,51.38,58.73,33.64,35.39
"2017-01-16 22:40:00",271061,0.449,292.6,-6.793,93.8,0,0,862.0565,0,122.7,1.978,192,2.165,2.901,0.003792951,0,51.38,58.73,33.64,35.39
"2017-01-16 22:50:00",271062,0.302,329.4,-6.836,93.8,0,0,862.2441,0,122.2,1.983,176,2.16,2.895,0.02655063,0,51.38,58.73,33.64,35.39
"2017-01-16 23:00:00",271063,0.114,276.8,-6.775,94.7,0,0,862.2782,0.5,121.8,1.987,179,2.167,2.904,0,0,51.38,58.73,33.64,35.39
"2017-01-16 23:10:00",271064,0.419,327.2,-6.865,95.6,0,0,862.3566,0,121.9,1.986,188,2.171,2.905,0,0,51.38,58.73,33.64,35.39
"2017-01-16 23:20:00",271065,0.723,308.3,-6.851,96.3,0,0,862.2657,0,123,1.975,184,2.161,2.905,0.1593077,0,51.38,58.73,33.64,35.39
"2017-01-16 23:30:00",271066,1.04,272.4,-6.782,95.2,0,0,862.343,0,123.3,1.971,192,2.15,2.902,0.2275782,0,51.38,58.73,33.64,35.39
"2017-01-16 23:40:00",271067,0.866,312.7,-6.818,94.7,0,0,862.4866,0.5,123.1,1.974,193,2.152,2.906,0.07965293,0,51.38,58.73,33.64,35.39
"2017-01-16 23:50:00",271068,1.066,295.7,-6.879,94,0,0,862.5267,0,122.9,1.976,191,2.145,2.903,0.02275842,0,51.38,58.73,33.64,35.39
